Wind_Speed
19 19 21 23 24 26 26 26 26 28 28 27 28 29 29 29 32 33 34 34 32 31 28 26 24 25 25 25 25 25 25 24 24 25 26 27 29 30 31 31 32 34 35 36
17 19 21 23 24 24 25 24 25 26 26 26 26 26 27 29 30 32 33 33 31 31 29 28 27 26 26 26 26 28 27 27 28 29 30 29 31 32 34 35 36 37 38 39
16 18 21 22 23 23 24 24 24 25 25 24 24 24 25 27 29 30 31 32 33 32 30 30 29 29 28 28 28 28 29 29 30 31 33 32 34 36 37 38 38 39 41 42
15 17 19 21 22 23 22 24 25 24 21 21 22 20 25 25 27 28 29 30 31 31 32 32 32 32 31 31 32 32 31 31 32 33 33 34 34 36 37 38 38 39 41 41
13 15 17 20 22 24 24 24 23 23 22 20 21 19 22 24 25 26 27 29 30 31 33 34 34 34 34 35 35 34 34 34 34 35 34 35 37 39 39 41 41 41 41 41
11 13 16 19 22 24 24 23 22 21 19 19 20 19 20 22 22 23 24 26 28 30 31 33 34 34 35 35 35 35 36 36 35 35 36 36 38 40 41 41 42 42 42 42
8 11 14 18 20 22 23 22 18 17 18 19 21 20 20 21 21 22 22 24 25 27 29 31 32 34 34 36 36 37 38 37 37 38 38 39 39 41 43 43 43 44 44 43
6 8 13 17 19 20 22 22 16 15 16 19 22 22 21 20 21 21 22 23 24 26 28 30 32 35 36 36 37 38 38 39 39 40 41 42 42 43 44 45 45 46 47 46
9 8 12 15 18 20 20 21 20 17 17 17 21 23 21 21 21 21 22 24 25 26 28 30 31 33 36 37 37 38 39 40 41 42 43 43 44 45 46 46 47 47 47 48
11 11 12 14 16 17 18 18 20 17 14 16 20 22 22 21 22 22 23 25 27 28 29 30 32 33 34 36 37 39 40 42 42 43 43 44 44 45 46 47 48 47 48 49
10 11 11 12 13 14 16 17 18 17 16 14 16 20 21 22 23 24 25 27 28 30 31 32 33 34 36 37 39 40 41 41 42 43 43 44 44 45 46 46 47 48 49 50
9 10 10 10 11 12 14 15 16 16 18 18 16 21 21 22 24 24 26 27 29 31 32 33 35 36 37 38 39 40 41 42 42 43 43 43 43 44 44 45 46 47 48 48
8 8 7 7 8 11 13 14 16 17 18 19 19 23 23 24 25 26 27 29 29 31 33 34 35 36 37 38 38 39 39 40 40 41 41 41 42 42 43 43 45 46 46 47
6 6 7 8 9 10 12 14 15 16 17 20 22 25 24 25 26 27 29 30 31 31 32 32 33 34 35 36 36 37 37 37 37 38 39 40 40 41 41 42 43 43 44 44
4 4 5 7 8 9 11 13 15 17 19 21 23 24 24 26 27 28 29 30 31 31 31 32 32 32 32 33 33 33 34 35 36 36 37 38 39 39 40 41 42 43 42 43
2 3 4 5 7 9 10 12 14 16 18 20 22 23 24 25 26 27 28 28 28 29 30 30 29 29 30 30 31 31 32 33 34 34 35 36 36 38 39 40 41 42 42 43
1 2 4 5 7 9 10 12 14 15 17 18 20 21 22 23 24 25 26 27 27 27 26 26 27 27 27 27 28 29 30 31 31 32 33 34 35 37 37 38 39 40 41 42
2 1 3 4 6 9 10 12 13 14 16 17 19 20 21 21 22 23 24 24 24 23 23 24 25 25 25 25 26 27 28 29 29 30 31 31 33 34 35 36 37 38 39 40
3 3 3 5 7 8 10 11 12 14 14 15 17 18 19 19 20 21 21 21 21 22 23 23 23 23 24 24 25 26 26 27 28 28 29 29 30 31 32 33 34 36 37 38
4 4 5 6 7 9 10 11 11 12 12 14 15 16 17 18 18 19 19 20 20 21 21 21 21 22 23 24 24 25 26 25 26 26 27 28 29 30 31 32 32 33 34 35
5 6 6 7 7 8 9 10 10 11 12 13 14 14 15 16 17 17 17 17 18 18 19 20 21 22 22 23 24 24 23 23 24 25 25 26 27 27 28 28 29 30 31 32
6 7 8 8 8 9 10 10 10 10 11 12 12 12 12 13 13 13 14 15 15 17 18 19 19 20 20 21 20 20 21 21 22 22 23 23 23 24 24 25 26 27 28 28
7 8 9 9 9 10 10 10 10 11 11 12 12 11 11 11 11 11 12 12 13 13 14 15 16 17 18 18 18 19 19 20 20 20 20 20 21 21 22 23 24 24 24 24
8 10 10 10 11 11 11 11 12 12 12 12 11 10 9 9 9 9 9 10 10 11 12 13 14 15 16 17 17 17 17 17 18 18 18 18 19 19 20 20 21 20 20 20
9 10 11 12 12 12 13 12 13 13 13 12 11 9 8 8 8 9 9 9 10 11 12 13 14 15 16 16 15 16 16 16 16 16 16 16 16 17 17 18 18 17 17 17
9 10 12 13 13 13 14 13 13 13 13 12 10 9 9 9 9 9 9 10 10 11 12 13 14 14 14 14 14 14 14 14 14 14 14 14 15 15 15 15 15 14 14 13
Wind_Direction
235 230 225 220 215 213 210 209 211 215 214 215 218 223 225 224 222 221 222 223 225 230 234 235 238 240 240 237 236 236 236 237 242 246 249 251 252 254 256 258 259 261 264 266
229 225 221 217 212 209 207 206 209 212 211 213 217 220 222 224 224 223 224 227 227 231 233 236 240 243 244 243 244 241 240 240 243 246 249 254 258 259 258 260 262 265 268 271
220 220 216 211 207 203 201 200 203 207 208 212 214 218 220 223 225 225 227 229 231 230 232 236 240 243 244 245 247 247 246 249 252 254 254 256 258 260 262 264 268 271 272 272
215 214 211 205 201 197 196 200 202 204 204 211 211 219 221 223 224 227 229 233 237 236 235 238 241 242 244 245 248 250 252 254 255 258 259 260 262 263 266 270 276 278 278 282
214 210 204 199 196 193 193 196 199 201 202 209 211 216 224 225 226 229 232 235 238 240 241 242 243 243 245 247 252 252 254 258 260 264 268 266 265 267 272 274 279 282 284 286
209 205 199 194 192 193 192 193 197 199 203 210 213 216 227 228 229 232 235 237 238 241 243 243 244 246 247 249 253 256 259 260 263 268 273 274 273 273 276 279 283 285 286 287
198 196 192 191 190 191 190 188 193 199 202 214 216 217 227 229 231 234 237 239 241 242 244 245 246 248 249 251 254 259 262 265 268 271 274 277 278 277 278 279 281 284 288 291
170 187 187 186 186 188 191 187 185 200 209 219 220 223 229 232 234 237 239 241 243 245 246 248 249 250 251 254 257 262 265 268 272 273 275 277 279 280 281 283 285 288 291 292
157 178 182 182 185 185 193 195 197 201 206 219 226 229 232 235 239 241 243 245 247 249 250 252 253 253 255 257 261 263 266 270 272 273 276 278 280 282 284 285 285 287 288 289
159 161 173 178 184 190 194 200 205 206 217 229 237 237 238 240 242 245 248 249 251 252 254 256 258 260 261 262 265 267 270 272 274 277 278 279 281 282 284 284 284 284 285 287
157 158 169 176 183 195 199 205 208 211 216 226 244 246 246 248 250 251 252 254 255 256 257 259 262 264 265 267 268 270 272 274 275 277 278 279 280 282 283 283 283 284 284 284
160 159 175 186 195 199 206 213 216 218 230 228 238 250 251 253 254 255 256 257 258 260 262 263 265 266 267 269 271 272 273 275 275 277 277 278 280 280 281 281 281 281 282 282
168 170 178 201 212 214 218 221 224 229 237 242 247 255 256 258 259 260 261 262 264 265 266 267 268 270 271 272 273 273 274 276 277 278 278 279 279 279 279 279 279 280 280 281
166 174 178 200 218 230 232 235 238 241 246 251 252 257 258 260 263 264 266 267 268 269 270 271 271 272 273 274 274 274 274 275 276 277 277 278 278 278 278 279 279 279 279 279
184 198 212 222 231 241 242 244 246 247 249 253 258 261 263 265 266 268 269 271 272 271 270 270 271 271 271 272 272 274 274 275 275 275 275 276 276 277 278 278 279 279 279 281
201 228 244 250 254 256 253 256 256 256 257 260 263 266 268 269 269 270 270 272 273 272 272 271 270 270 270 271 271 272 273 274 275 274 274 275 276 277 279 280 282 284 286 287
227 265 271 273 272 273 270 265 267 268 268 269 270 271 272 271 271 271 273 273 273 272 270 270 271 272 273 273 272 273 273 273 274 275 276 278 280 281 283 285 287 289 291 293
35 340 303 292 285 281 285 281 277 277 276 275 274 275 275 274 274 273 273 271 270 270 272 274 274 275 277 276 275 275 276 277 279 281 282 283 284 286 288 290 292 294 295 296
18 355 327 313 304 298 296 294 292 288 284 281 280 278 278 276 274 274 275 273 272 273 273 273 273 273 275 277 278 278 280 283 285 286 286 288 289 291 293 295 296 298 300 301
20 2 345 331 318 312 311 306 302 297 292 291 289 285 283 281 278 275 274 274 271 271 272 274 275 276 278 279 281 284 285 287 288 290 291 293 294 296 297 299 301 304 305 306
23 9 357 345 333 326 322 316 312 308 303 300 297 293 288 284 283 280 278 277 276 276 277 279 280 281 282 282 283 285 287 289 291 293 295 297 299 300 302 305 307 310 312 313
21 10 3 355 349 342 335 329 323 315 312 310 306 301 297 293 289 283 282 282 282 280 280 281 282 283 284 284 286 288 290 293 295 297 299 301 303 305 309 311 313 315 316 317
20 13 6 1 355 347 343 337 332 326 322 320 316 312 307 305 300 299 297 294 292 289 286 285 286 286 287 289 291 293 295 296 298 300 302 305 307 309 312 315 317 318 319 321
22 16 10 5 358 353 350 346 342 336 332 328 322 320 319 315 313 314 312 307 302 300 298 297 296 296 295 295 295 296 297 299 301 304 305 307 310 312 315 319 321 323 325 328
22 17 12 8 1 358 355 350 347 343 341 340 336 331 330 328 325 324 322 320 316 311 309 307 305 304 302 301 301 301 302 303 305 306 308 311 313 316 319 321 324 326 331 335
21 16 11 8 4 1 358 355 352 351 349 348 346 341 338 337 334 331 328 324 321 319 317 315 313 311 309 308 306 307 307 307 307 308 310 313 316 319 322 326 330 333 337 342
Height
5771 5775 5777 5781 5785 5789 5793 5798 5802 5806 5811 5816 5819 5823 5827 5830 5834 5837 5841 5845 5848 5852 5856 5858 5861 5863 5864 5866 5867 5867 5868 5869 5869 5870 5869 5869 5868 5867 5867 5866 5865 5864 5864 5863
5767 5770 5773 5776 5781 5785 5790 5795 5799 5803 5807 5812 5815 5820 5823 5826 5829 5833 5836 5840 5843 5847 5851 5854 5856 5858 5860 5861 5862 5862 5863 5864 5864 5864 5864 5863 5862 5861 5860 5860 5859 5858 5857 5855
5763 5766 5768 5773 5778 5782 5787 5792 5796 5800 5804 5808 5813 5817 5820 5822 5826 5829 5832 5836 5839 5842 5846 5849 5851 5854 5855 5857 5858 5858 5858 5859 5859 5858 5858 5857 5856 5855 5854 5853 5851 5850 5849 5847
5759 5762 5766 5770 5775 5779 5785 5788 5793 5797 5803 5807 5811 5814 5816 5819 5822 5825 5828 5831 5834 5837 5840 5843 5846 5848 5850 5851 5852 5852 5853 5853 5853 5852 5852 5851 5850 5848 5847 5845 5843 5841 5840 5838
5758 5760 5763 5768 5772 5777 5781 5786 5791 5795 5800 5805 5808 5812 5813 5815 5818 5821 5824 5827 5829 5832 5835 5837 5840 5842 5844 5845 5846 5846 5847 5847 5846 5845 5844 5844 5843 5841 5839 5837 5835 5834 5833 5830
5756 5759 5762 5766 5770 5775 5779 5785 5789 5793 5799 5803 5805 5809 5810 5811 5814 5817 5819 5822 5825 5827 5829 5831 5834 5835 5837 5838 5839 5840 5840 5840 5839 5838 5837 5836 5835 5834 5832 5829 5828 5826 5825 5822
5756 5759 5761 5765 5769 5774 5779 5785 5790 5794 5798 5801 5802 5805 5806 5808 5811 5813 5815 5817 5820 5822 5824 5826 5827 5829 5830 5832 5833 5833 5833 5833 5832 5831 5830 5829 5828 5826 5824 5822 5820 5818 5816 5813
5758 5761 5761 5764 5769 5773 5777 5783 5791 5796 5798 5797 5798 5800 5803 5805 5807 5809 5811 5813 5815 5817 5819 5820 5821 5823 5824 5825 5826 5826 5826 5825 5824 5823 5822 5821 5820 5818 5816 5814 5812 5809 5808 5806
5759 5761 5762 5764 5768 5772 5777 5781 5785 5790 5793 5795 5795 5797 5799 5801 5803 5805 5807 5809 5810 5812 5813 5814 5814 5816 5817 5818 5818 5818 5818 5817 5817 5815 5814 5812 5811 5809 5807 5805 5803 5800 5798 5796
5757 5761 5763 5765 5768 5772 5776 5779 5783 5788 5791 5792 5792 5793 5795 5797 5799 5801 5802 5804 5805 5806 5807 5807 5808 5808 5809 5809 5810 5809 5809 5808 5807 5806 5804 5803 5801 5799 5797 5795 5792 5790 5788 5786
5758 5762 5764 5766 5768 5771 5775 5778 5780 5784 5787 5791 5791 5792 5791 5792 5794 5795 5797 5798 5799 5799 5800 5800 5801 5801 5801 5801 5801 5800 5800 5799 5797 5796 5794 5792 5791 5789 5787 5785 5782 5779 5777 5774
5760 5763 5765 5767 5768 5770 5773 5775 5778 5782 5783 5785 5787 5788 5786 5787 5788 5789 5790 5791 5792 5792 5792 5792 5792 5792 5792 5792 5791 5791 5790 5789 5787 5786 5784 5782 5780 5778 5776 5774 5771 5768 5765 5762
5761 5763 5766 5767 5770 5770 5771 5773 5775 5777 5779 5780 5782 5783 5781 5781 5782 5782 5783 5783 5784 5784 5784 5784 5783 5783 5782 5782 5781 5780 5779 5778 5777 5775 5773 5772 5769 5767 5765 5763 5760 5757 5754 5751
5761 5763 5766 5768 5767 5768 5769 5770 5772 5774 5776 5776 5776 5775 5775 5775 5775 5775 5775 5775 5776 5775 5775 5775 5774 5773 5773 5772 5771 5770 5769 5768 5766 5765 5763 5761 5759 5756 5754 5751 5748 5745 5742 5739
5761 5763 5763 5764 5765 5765 5766 5767 5768 5769 5769 5770 5769 5769 5768 5768 5768 5768 5768 5767 5767 5767 5766 5766 5765 5764 5764 5763 5762 5761 5759 5758 5756 5755 5753 5751 5748 5746 5743 5741 5737 5734 5731 5727
5761 5762 5762 5762 5763 5763 5763 5763 5764 5764 5764 5763 5763 5762 5762 5761 5761 5760 5760 5759 5759 5758 5757 5757 5756 5755 5754 5754 5752 5751 5750 5748 5747 5745 5743 5741 5738 5736 5733 5730 5727 5723 5720 5716
5761 5761 5761 5761 5761 5761 5760 5760 5759 5759 5758 5758 5757 5757 5755 5754 5754 5753 5752 5751 5751 5750 5749 5748 5747 5746 5745 5744 5743 5742 5740 5739 5737 5736 5734 5732 5729 5727 5724 5720 5717 5713 5709 5705
5760 5760 5760 5759 5759 5758 5759 5756 5755 5754 5753 5752 5751 5750 5749 5748 5747 5746 5745 5744 5743 5742 5741 5740 5739 5738 5737 5736 5735 5733 5732 5730 5729 5727 5725 5723 5720 5717 5715 5711 5708 5704 5700 5695
5760 5759 5759 5758 5757 5756 5755 5753 5751 5750 5748 5747 5745 5744 5743 5742 5741 5740 5738 5737 5736 5735 5734 5733 5732 5731 5730 5729 5727 5726 5724 5722 5720 5719 5717 5714 5712 5709 5706 5703 5699 5695 5690 5685
5759 5758 5758 5756 5755 5753 5752 5749 5747 5747 5744 5742 5740 5739 5737 5736 5735 5734 5732 5731 5730 5729 5728 5727 5725 5724 5723 5722 5720 5719 5717 5715 5713 5711 5709 5707 5704 5701 5698 5694 5690 5686 5681 5676
5759 5758 5756 5755 5753 5751 5749 5746 5745 5744 5742 5738 5736 5734 5732 5731 5730 5728 5726 5725 5724 5723 5722 5721 5720 5719 5717 5715 5714 5712 5711 5709 5707 5705 5702 5699 5697 5694 5690 5686 5682 5678 5673 5667
5759 5757 5755 5753 5751 5751 5746 5744 5742 5740 5737 5734 5732 5730 5728 5726 5724 5723 5722 5720 5719 5718 5716 5715 5714 5713 5711 5710 5708 5706 5705 5703 5701 5698 5696 5693 5690 5687 5684 5680 5675 5671 5666 5661
5758 5757 5755 5753 5752 5748 5744 5742 5739 5736 5734 5731 5729 5727 5725 5723 5721 5719 5718 5716 5715 5713 5712 5711 5709 5708 5706 5704 5703 5701 5699 5697 5695 5693 5690 5687 5684 5681 5678 5674 5670 5666 5661 5657
5758 5756 5753 5751 5748 5745 5743 5740 5737 5734 5731 5728 5726 5724 5722 5720 5718 5716 5715 5713 5711 5710 5708 5707 5705 5703 5701 5699 5698 5696 5694 5692 5690 5687 5685 5682 5679 5676 5673 5669 5665 5661 5657 5653
5757 5755 5753 5750 5747 5744 5741 5738 5735 5732 5729 5726 5723 5721 5719 5718 5716 5714 5712 5710 5709 5707 5705 5703 5701 5699 5697 5695 5693 5691 5689 5687 5685 5683 5680 5678 5675 5672 5669 5665 5662 5658 5654 5650
5757 5755 5752 5750 5747 5744 5741 5737 5734 5731 5728 5725 5722 5720 5718 5716 5714 5712 5710 5709 5707 5705 5702 5700 5697 5695 5693 5691 5689 5687 5685 5683 5681 5678 5676 5674 5672 5669 5666 5662 5659 5655 5652 5649